Погода Миллерово

Погода Миллерово : погода сейчас, прогноз погоды и архив. Всё, что Вы хотите узнать о погоде Миллерово!

Хотите узнать прогноз погоды Миллерово? Тогда Вам сюда: Погода Миллерово

Поиск расширенной информации на нашем сайте:

Другие новости

Новости СМИ2

Главная страница сайта

Новости сайта

03.07.2017

Напоминаем, что на нашем специализированном сайте Метеоцентр.Азия вы можете получить высокодетализированные автоматические прогнозы погоды по пунктам России, СНГ и мира в авиационном формате (включающие направление и скорость ветра, видимость, явления погоды, количество и форму облачности, нижнюю и верхнюю границу облачности).


Погода Миллерово - сегодня

Время (UTC), дата Ветер
(°,м/с) 
Видим.   Явления Облачность Т
(°С)
Тd
(°С)
f(%) Тe
(°С)
Pmin
(гПа)
dP
(гПа)
Po
(мм)
O2
(г/м3)
Тmin Tmax R s Состояние
почвы
12 09.12.17 130 (ЮВ) 10 км    10/10 600 м 
[Sc]
+1.2 -0.3 90 -1  1019.1  -1.5  750  301           
15 09.12.17 140 (ЮВ) 10 км    10/10 600 м 
[Sc]
+1.2 +0.3 94 -1  1018.7  -0.5  749  301    +1.3       
18 09.12.17 130 (ЮВ) 10 км    10/10 600 м 
[Sc]
+1.6 +1.5 99 1018.4  -0.3  749  300           
21 09.12.17 140 (ЮВ) 10 км    10/10 300 м 
[Sc]
+3.1 +2.9 99 +2  1018  -0.3  749  298           
00 10.12.17 170 (Ю) 10 км    10/10 300 м 
[Sc]
+4.8 +3.9 94 +4  1017.7  -0.2  749  296           
03 10.12.17 170 (Ю) 10 км    10/10 300 м 
[Sc]
+5 +3.9 93 +4  1017.1  -0.5  749  296  +1.2         
06 10.12.17 160 (Ю) 10 км    9/9 600 м кучево-дожд. 
[Cb calv]
+4.5 +3 90 +3  1017.4  0.3  749  296           
09 10.12.17 160 (Ю) 10 км    8/0 средняя 
[Ac lent]
+8.9 +2.9 66 +8  1016.1  -1  748  291           
12 10.12.17 150 (ЮВ) 4{10}  10 км    8/0 средняя 
[Ac lent]
+10.1 +0.1 50 +9  1014.5  -1.6  747  290           
15 10.12.17 140 (ЮВ) 10 км    8/0 средняя 
[Ac lent]
+6.2 +0.5 67 +5  1014.2  -0.5  746  294    +10.4       
18 10.12.17 140 (ЮВ) 10 км    9/0 средняя 
[Ac lent]
+4.2 +1.2 81 +2  1013.1  -1.2  746  296           
21 10.12.17 140 (ЮВ) 6-12{13}  10 км    4/0 средняя 
[Ac cast]
+3.5 +1.4 86 +1  1011.9  -1.3  745  296           
00 11.12.17 160 (Ю) 6-11{12}  10 км  слаб. ливневой дождь  10/10 300 м кучево-дожд. 
[Cb calv]
+3.7 +3 95 +1  1011.7  745  296           
03 11.12.17 220 (ЮЗ) 10 км  {ливн. осадки}  10/10 200 м кучево-дожд. 
[Cb calv]
+3 -0.5 78 1014.1  2.2  746  297  +3       
06 11.12.17 220 (ЮЗ) 5-10  10 км  {ливн. осадки}  10/8 300 м кучево-дожд., средняя, верхняя 
[Cb calv|Ac As|Ci fib]
+1.6 -1.7 79 -1  1017.7  3.4  749  300  +1.5         
09 11.12.17 220 (ЮЗ) 5-10{13}  10 км    10/0 средняя 
[Ac As]
+2.2 -2.8 69 1019.8  2.1  750  300           
12 11.12.17 220 (ЮЗ) 4{10}  10 км    10/0 средняя, верхняя 
[Ac As|Ci sp]
+4.4 -3.8 55 +3  1021  1.4  751  298           
15 11.12.17 180 (Ю) 10 км    8/0 средняя 
[Ac As]
+2.5 -1.6 74 +1  1022.9  1.7  753  301    +4.4       
18 11.12.17 180 (Ю) 10 км    10/0 средняя 
[Ac und]
+2.8 +0.1 82 +1  1022.9  753  300           
21 11.12.17 160 (Ю) 10 км    10/0 средняя 
[Ac und]
+3.7 +1.5 86 +2  1022.2  -0.7  752  299           
00 12.12.17 140 (ЮВ) 10 км  {ливн. осадки}  10/10 300 м кучево-дожд. 
[Cb calv]
+3.8 +2.3 90 +2  1020.8  -1.3  751  298           
03 12.12.17 180 (Ю) 10 км    10/10 300 м кучево-дожд. 
[Cb calv]
+3.9 +3.1 95 +2  1020.5  -0.3  751  298  +2.1    0.0     
06 12.12.17 180 (Ю) 4000 м  дымка{ливн. осадки}  10/10 300 м кучево-дожд. 
[Cb calv]
+4.5 +4.3 99 +3  1020.7  0.2  751  297           
09 12.12.17 170 (Ю) 1000 м  слаб. ливневой дождь  10/10 200 м кучево-дожд. 
[Cb calv]
+5.7 +5.6 99 +4  1020.1  -0.5  751  295           
12 12.12.17 180 (Ю) 1000 м  слаб. ливневой дождь  10/10 200 м кучево-дожд. 
[Cb calv]
+6.7 +6.5 99 +5  1019.1  -0.8  750  294           
Время (UTC), дата Ветер
(°,м/с) 
Видим.   Явления Облачность Т
(°С)
Тd
(°С)
f(%) Тe
(°С)
Pmin
(гПа)
dP
(гПа)
Po
(мм)
O2
(г/м3)
Тmin Tmax R s Состояние
почвы

Для получения пояснительной информации подведите курсор к названию столбца.

ПОГОДА Миллерово - архив

Всё, что Вы хотите узнать о погоде Миллерово - удобно и подробно!

Выберите нужную дату (начиная с 1 января 2015* года) и нажмите кнопку "Найти".
Будут отображены архивные сводки погоды по пункту Миллерово, начиная с указанной даты.


Отображать данные в формате CSV (для использования в таблицах Excel)


Внимание! Наш архив погоды предназначен исключительно для личного некоммерческого использования в познавательных целях. Если Вам необходимы официальные справки о состоянии погоды (для производственных, юридических, коммерческих и т.п. целей), обращайтесь в органы Росгидромета.

*Примечание: данная дата относится к архиву по метеостанциям СССР (Россия, СНГ, Балтия).
Архив по метеостанциям Зарубежной Европы и Азии (кроме Китая) хранится 10 дней, по другим регионам земного шара (Китай, Африка, Америка, Австралия, Океания) - 1 день.

Миллерово - район местоположения метеостанции


Название, широта, долгота, высота метеостанции:
Миллерово 48.9°ш. 40.4°д. 155 м над ур. моря [Российская Федерация]

Дополнительная информация

В oтличие oт бoльшинства пoгoдных сайтoв мы публикуем пoдрoбную метеoинфoрмацию в детальнoм прoфессиoнальнoм фoрмате.

Характеристики температуры и влажнoсти вoздуха измеряются на высoте 2 м в тени вдали oт зданий и деревьев.
Скoрoсть ветра измеряется на высoте 10 м (на урoвне рoста челoвека скoрoсть ветра ниже в 1.5-2 раза). Если метеoстанция нахoдится в гoрoде или в лесу, тo скoрoсть ветра занижена на 2-4 м/с пo сравнению с oткрытым местoм. Скoрoсть ветра над акватoриями крупных рек и oзёр, а также на вершинах хoлмoв на 2-5 м/с выше, чем в oбычных услoвиях.
Атмoсфернoе давление в разных тoчках местнoсти мoжет значительнo oтличаться oт давления на метеoстанции, в зависимoсти oт услoвий рельефа (при пoдъёме на 10 м давление пoнижается примернo на 1 мм рт.ст.).